Weather History for Jackson, MS

Change the Weather History Date:

Thursday, January 5, 2012

  Actual Average Record
Temperature  
Mean Temperature 50 °F 46 °F  
Max Temperature 66 °F 56 °F 78 °F (1921)
Min Temperature 33 °F 35 °F 11 °F (1969)
Degree Days  
Heating Degree Days 15 20  
Month to date heating degree days 93 100  
Since 1 July heating degree days 964 1050  
Cooling Degree Days 0 0  
Month to date cooling degree days 0 0  
Year to date cooling degree days 0 0  
Moisture  
Dew Point 36 °F    
Average Humidity 64    
Maximum Humidity 100    
Minimum Humidity 28    
Precipitation  
Precipitation 0.00 in 0.15 in 3.24 in (1950)
Month to date precipitation T 0.72  
Year to date precipitation T 0.72  
Sea Level Pressure  
Sea Level Pressure 30.24 in    
Wind  
Wind Speed 1 mph (SW)    
Max Wind Speed 10 mph    
Max Gust Speed 13 mph    
Visibility 6 miles    
Events Fog    
T = Trace of Precipitation, MM = Missing Value Source: NWS Daily Summary

Daily Weather History Graph

Daily Weather History Graph

Search for Another Location

Airport:

Trip Planner

Search our weather history database for the weather conditions in past years. The results will help you decide how hot, cold, wet, or windy it might be!

Date:

Astronomy

Jan. 05, 2012 Rise Set
Actual Time 7:02 AM CST 5:09 PM CST
Civil Twilight 6:35 AM CST 5:35 PM CST
Nautical Twilight 6:04 AM CST 6:06 PM CST
Astronomical Twilight 5:35 AM CST 6:36 PM CST
Moon 2:13 PM CST (1/5) 3:47 AM CST (1/5)
Length of Visible Light 11h 00m
Length of Day
10h 06m
Waxing Gibbous, 88% of the Moon is Illuminated
Jan 5
Waxing Gibbous
Jan 9
Full
Jan 16
Last Quarter
Jan 23
New
Jan 30
First Quarter

Hourly Weather History & Observations

Time (CST) Temp. Windchill Dew Point Humidity Pressure Visibility Wind Dir Wind Speed Gust Speed Precip Events Conditions
12:54 AM 39.0 °F - 37.9 °F 96% 30.28 in 7.0 mi Calm Calm - N/A   Clear
1:54 AM 39.0 °F - 37.0 °F 93% 30.28 in 5.0 mi Calm Calm - N/A   Clear
2:09 AM 39.2 °F - 37.4 °F 93% 30.28 in 7.0 mi Calm Calm - N/A   Partly Cloudy
2:54 AM 36.0 °F - 35.1 °F 97% 30.27 in 5.0 mi Calm Calm - N/A   Partly Cloudy
3:28 AM 37.4 °F - 37.4 °F 100% 30.26 in 2.0 mi Calm Calm - N/A   Scattered Clouds
3:34 AM 37.4 °F - 37.4 °F 100% 30.26 in 1.0 mi Calm Calm - N/A   Mostly Cloudy
3:47 AM 35.6 °F - 33.8 °F 93% 30.26 in 0.5 mi Calm Calm - N/A Fog Fog
3:54 AM 37.0 °F - 36.0 °F 96% 30.26 in 0.2 mi Calm Calm - N/A Fog Fog
4:18 AM 35.6 °F - 35.6 °F 100% 30.26 in 0.2 mi Calm Calm - N/A Fog Fog
4:54 AM 35.1 °F - 34.0 °F 96% 30.26 in 2.0 mi Calm Calm - N/A   Mostly Cloudy
5:04 AM 35.6 °F - 35.6 °F 100% 30.25 in 3.0 mi Calm Calm - N/A   Mostly Cloudy
5:19 AM 35.6 °F - 35.6 °F 100% 30.25 in 3.0 mi Calm Calm - N/A   Scattered Clouds
5:45 AM 35.6 °F - 35.6 °F 100% 30.25 in 2.0 mi Calm Calm - N/A   Scattered Clouds
5:54 AM 35.1 °F - 35.1 °F 100% 30.25 in 2.0 mi Calm Calm - N/A   Scattered Clouds
6:49 AM 33.8 °F - 33.8 °F 100% 30.25 in 0.8 mi Calm Calm - N/A   Scattered Clouds
6:54 AM 34.0 °F - 32.0 °F 92% 30.26 in 0.8 mi Calm Calm - N/A   Scattered Clouds
7:34 AM 33.8 °F - 33.8 °F 100% 30.26 in 1.0 mi Calm Calm - N/A   Partly Cloudy
7:54 AM 36.0 °F - 35.1 °F 97% 30.27 in 2.0 mi Calm Calm - N/A   Partly Cloudy
8:02 AM 37.4 °F - 37.4 °F 100% 30.27 in 4.0 mi Calm Calm - N/A   Partly Cloudy
8:54 AM 45.0 °F - 43.0 °F 93% 30.29 in 6.0 mi Calm Calm - N/A   Clear
9:54 AM 51.1 °F - 43.0 °F 74% 30.30 in 7.0 mi Calm Calm - N/A   Clear
10:54 AM 57.2 °F - 41.0 °F 55% 30.29 in 10.0 mi Calm Calm - N/A   Clear
11:54 AM 61.0 °F - 39.0 °F 44% 30.26 in 10.0 mi SSW 3.5 mph - N/A   Clear
12:54 PM 63.0 °F - 35.1 °F 35% 30.23 in 10.0 mi West 5.8 mph - N/A   Clear
1:54 PM 64.9 °F - 33.1 °F 31% 30.20 in 10.0 mi Variable 3.5 mph - N/A   Clear
2:54 PM 66.0 °F - 32.0 °F 28% 30.20 in 7.0 mi NW 4.6 mph - N/A   Clear
3:54 PM 66.0 °F - 32.0 °F 28% 30.19 in 10.0 mi Variable 4.6 mph - N/A   Clear
4:54 PM 62.1 °F - 35.1 °F 37% 30.19 in 10.0 mi Calm Calm - N/A   Clear
5:54 PM 48.9 °F - 37.0 °F 64% 30.19 in 10.0 mi Calm Calm - N/A   Clear
6:54 PM 44.1 °F - 36.0 °F 73% 30.20 in 10.0 mi Calm Calm - N/A   Clear
7:54 PM 43.0 °F - 35.1 °F 74% 30.19 in 10.0 mi Calm Calm - N/A   Clear
8:54 PM 39.9 °F 37.8 °F 34.0 °F 79% 30.19 in 10.0 mi SSE 3.5 mph - N/A   Clear
9:54 PM 39.0 °F - 33.1 °F 79% 30.18 in 10.0 mi Calm Calm - N/A   Clear
10:54 PM 37.9 °F - 32.0 °F 79% 30.16 in 10.0 mi Calm Calm - N/A   Clear
11:54 PM 37.0 °F - 32.0 °F 82% 30.13 in 10.0 mi Calm Calm - N/A   Clear